New Castle, PA

9:35 AM EDT on August 16, 2017 (GMT -0400)
New Castle Municipal

Weather History for KUCP - February, 2014

Change the Weather History Date:

Monday, February 10, 2014

  Actual Average Record
Temperature  
Mean Temperature 14 °F -  
Max Temperature 18 °F 35 °F 70 °F (1937)
Min Temperature 9 °F 12 °F -12 °F (1934)
Degree Days  
Heating Degree Days 52    
Moisture  
Dew Point 6 °F    
Average Humidity 71    
Maximum Humidity 88    
Minimum Humidity 53    
Precipitation  
Precipitation 0.00 in - - ()
Sea Level Pressure  
Sea Level Pressure 30.32 in    
Wind  
Wind Speed 5 mph (WSW)    
Max Wind Speed 9 mph    
Max Gust Speed -    
Visibility 10 miles    
Events Snow    
Averages and records for this station are not official NWS values.
T = Trace of Precipitation, MM = Missing Value Source: NWS Daily Summary

Daily Weather History Graph

Daily Weather History Graph

Search for Another Location

Airport or City:

Trip Planner

Search our weather history database for the weather conditions in past years. The results will help you decide how hot, cold, wet, or windy it might be!

Date:

Astronomy

Feb. 10, 2014 Rise Set
Actual Time 7:22 AM EST 5:49 PM EST
Civil Twilight 6:53 AM EST 6:18 PM EST
Nautical Twilight 6:21 AM EST 6:50 PM EST
Astronomical Twilight 5:49 AM EST 7:22 PM EST
Moon 2:16 PM EST (2/10) 4:15 AM EST (2/10)
Length of Visible Light 11h 24m
Length of Day
10h 27m
Waxing Gibbous, 84% of the Moon is Illuminated
Feb 10
Waxing Gibbous
Feb 14
Full
Feb 22
Last Quarter
Mar 1
New
Mar 8
First Quarter

Hourly Weather History & Observations

Time (EST) Temp. Windchill Dew Point Humidity Pressure Visibility Wind Dir Wind Speed Gust Speed Precip Events Conditions
12:56 AM 15.8 °F 4.2 °F 10.4 °F 79% 30.14 in 9.0 mi WSW 9.2 mph - N/A Snow Light Snow
1:56 AM 14.0 °F 3.9 °F 9.1 °F 81% 30.24 in 7.0 mi WSW 6.9 mph - 0.00 in Snow Light Snow
2:56 AM 14.0 °F 5.1 °F 9.1 °F 81% 30.25 in 10.0 mi WSW 5.8 mph - 0.00 in   Overcast
3:56 AM 12.0 °F 4.1 °F 8.1 °F 84% 30.25 in 10.0 mi SW 4.6 mph - N/A   Mostly Cloudy
4:56 AM 11.1 °F - 8.1 °F 87% 30.25 in 9.0 mi Calm Calm - 0.00 in   Overcast
5:56 AM 10.0 °F 0.4 °F 6.1 °F 84% 30.27 in 9.0 mi SW 5.8 mph - N/A   Scattered Clouds
6:56 AM 9.1 °F 2.6 °F 5.0 °F 83% 30.29 in 9.0 mi SW 3.5 mph - N/A   Overcast
7:56 AM 9.1 °F -0.7 °F 5.0 °F 83% 30.32 in 8.0 mi SW 5.8 mph - N/A   Overcast
8:56 AM 10.0 °F 0.4 °F 7.2 °F 88% 30.34 in 8.0 mi West 5.8 mph - 0.00 in Snow Light Snow
9:56 AM 12.2 °F 2.9 °F 6.8 °F 79% 30.24 in 10.0 mi WSW 5.8 mph - N/A   Mostly Cloudy
10:56 AM 15.1 °F 7.7 °F 7.2 °F 71% 30.35 in 10.0 mi Variable 4.6 mph - N/A   Partly Cloudy
11:56 AM 17.1 °F 6.6 °F 4.1 °F 57% 30.35 in 10.0 mi NW 8.1 mph - N/A   Scattered Clouds
12:56 PM 18.1 °F 8.9 °F 5.0 °F 57% 30.33 in 10.0 mi WNW 6.9 mph - N/A   Overcast
1:56 PM 18.1 °F - 5.0 °F 57% 30.32 in 10.0 mi Calm Calm - 0.00 in   Mostly Cloudy
2:56 PM 17.1 °F 6.6 °F 8.1 °F 68% 30.32 in 8.0 mi WNW 8.1 mph - 0.00 in Snow Light Snow
3:56 PM 17.6 °F 8.2 °F 3.2 °F 53% 30.24 in 10.0 mi West 6.9 mph - N/A   Mostly Cloudy
4:56 PM 17.1 °F 10.0 °F 5.0 °F 59% 30.36 in 10.0 mi WNW 4.6 mph - 0.00 in   Mostly Cloudy
5:56 PM 16.2 °F 9.0 °F 3.0 °F 56% 30.38 in 10.0 mi West 4.6 mph - N/A   Mostly Cloudy
6:56 PM 14.0 °F - 3.0 °F 62% 30.39 in 10.0 mi Calm Calm - N/A   Overcast
7:56 PM 14.0 °F - 4.1 °F 65% 30.40 in 10.0 mi Calm Calm - N/A   Overcast
8:56 PM 14.0 °F 8.2 °F 6.1 °F 71% 30.41 in 10.0 mi WSW 3.5 mph - N/A   Overcast
9:04 PM 14.0 °F - 6.8 °F 73% 30.30 in 10.0 mi Calm Calm - N/A   Overcast
9:26 PM 14.0 °F 8.2 °F 6.8 °F 73% 30.31 in 10.0 mi WSW 3.5 mph - N/A   Overcast
9:56 PM 14.0 °F 5.1 °F 6.1 °F 71% 30.42 in 10.0 mi WSW 5.8 mph - N/A   Overcast
10:11 PM 14.0 °F - 6.8 °F 73% 30.31 in 10.0 mi Calm Calm - N/A   Overcast
10:56 PM 14.0 °F - 4.1 °F 65% 30.43 in 10.0 mi Calm Calm - 0.00 in   Mostly Cloudy
11:56 PM 14.0 °F 5.1 °F 3.0 °F 62% 30.43 in 10.0 mi West 5.8 mph - N/A   Overcast